This is the latest recevied weather packets stored in our database for station/object NN3A-3. If no packets are shown the sender has not sent any weather packets the latest 10 day(s).
| Time | Temp. | Humidity | Pressure | Rain* | Wind** | Luminosity | Snow |
|---|---|---|---|---|---|---|---|
| 1778262659 | 15.56° C | 66% | 1010.3 hPa | 0 mm | - | - | - |
| 1778262359 | 15.56° C | 65% | 1010.3 hPa | 0 mm | - | - | - |
| 1778262060 | 16.11° C | 66% | 1010.3 hPa | 0 mm | - | - | - |
| 1778261760 | 15.56° C | 65% | 1010.3 hPa | 0 mm | - | - | - |
| 1778261460 | 16.11° C | 65% | 1010.3 hPa | 0 mm | - | - | - |
| 1778261160 | 16.11° C | 64% | 1010.3 hPa | 0 mm | - | - | - |
| 1778260560 | 15° C | 64% | 1010.3 hPa | 0 mm | - | - | - |
| 1778259961 | 15.56° C | 62% | 1010.3 hPa | 0 mm | - | - | - |
| 1778259661 | 16.11° C | 62% | 1010.6 hPa | 0 mm | - | - | - |
| 1778259361 | 16.11° C | 62% | 1010.6 hPa | 0 mm | - | - | - |
| 1778259061 | 16.11° C | 62% | 1010.6 hPa | 0 mm | - | - | - |
| 1778258761 | 15.56° C | 63% | 1011 hPa | 0 mm | - | - | - |
| 1778258461 | 17.22° C | 62% | 1010.6 hPa | 0 mm | - | - | - |
| 1778258162 | 16.11° C | 66% | 1011 hPa | 0 mm | - | - | - |
| 1778257862 | 15.56° C | 65% | 1010.6 hPa | 0 mm | - | - | - |
| 1778257562 | 16.67° C | 63% | 1010.6 hPa | 0 mm | - | - | - |
| 1778257262 | 16.11° C | 62% | 1011 hPa | 0 mm | - | - | - |
| 1778256662 | 16.67° C | 63% | 1011 hPa | 0 mm | - | - | - |
| 1778256363 | 17.22° C | 64% | 1011 hPa | 0 mm | - | - | - |
| 1778256062 | 17.22° C | 66% | 1011 hPa | 0 mm | - | - | - |
| 1778255763 | 16.11° C | 65% | 1011 hPa | 0 mm | - | - | - |
| 1778255463 | 16.67° C | 67% | 1011 hPa | 0 mm | - | - | - |
| 1778255163 | 16.67° C | 67% | 1011 hPa | 0 mm | - | - | - |
| 1778254863 | 16.11° C | 66% | 1011 hPa | 0 mm | - | - | - |
| 1778254564 | 15° C | 69% | 1011 hPa | 0 mm | - | - | - |
* Rain latest hour (hover to see other rain measurements)
** Current wind speed in m/s (hover to see current wind gust speed)